Showing default

COSMOS 1998, 19789

Orbit data source: Space-Track

COSMOS 1998, 19789 is a payload satellite owned by UNKS (CIS) in LEO that was launched on Fri, 10 Feb 1989 UTC via a TSIKLON-3 launch vehicle from the Plesetsk Missile And Space Complex (PKMTR). Payload-class satellites include a variety of spacecraft equipped with specific instruments for various scientific and technological missions. These include communications satellites like Starlink; space stations such as the ISS; scientific satellites like the Hubble; Earth observation satellites from companies like Planet Labs, Umbra, and HawkEye 360; GPS; miniature CubeSats for education and research; and military/defense satellites.

Loading next visibility...
Identifier
19789, 1989-009E
Orbit
LEO
Country
Flag of CISCIS
Related business
Manufacturer
NPO PM
Mission
Defense Communications
Bus & Motor
STRELA-3, Unknown motor
Mass
225 kg wet, 225 kg dry
Launch date (UTC)
1989-02-10 (37 years ago)
Launch vehicle
TSIKLON-3
Launch site
Plesetsk Missile And Space Complex (PKMTR)
Object type
Payload
Rocket body
Debris
Shape & HBR
Cyl, 0.8 m
Radar Cross Section
1.257 m², Large (>1 m²)

Expand to show TLE details & history
Last TLE update: 15 hours ago

TLE from 15 hours ago
0 COSMOS 1998
1 19789U 89009E   25258.77111058  .00000007  00000-0 -18322-4 0  9990
2 19789  82.6134 146.6839 0015557 183.1219 176.9779 12.64923492689321
Epoch: 2025-09-15T18:30Z
TLE epoch observation values (Epoch: 2025-09-15T18:30:23.954Z)
Latitude
-0.00001°
Longitude
-125.8869°
Altitude
1,417.513 km
Speed
7.146 km/s
True Right ascension
09h 46m 44s
True Declination
0° 00' 00"
Sunlit
Object was in daylight at epoch
Visualization orbit readout
Latitude
Unknown
Longitude
Unknown
Altitude
Unknown
Speed
Unknown
Apparent Right ascension
Unknown
Apparent Declination
Unknown
Sunlit
N/A
Visualization observer readout
Local Sidereal Time
01:58:57
Azimuth
Unknown
Elevation
Unknown
Doppler factor
Unknown
Orbital elements
Apogee altitude
1,412.105 km
Perigee altitude
1,387.904 km
Semi-major axis
7,778.141 km
Eccentricity
0.00156
Inclination
82.6134°
RAAN
146.6839°
Arg. of periapsis
183.1219°
True anomaly
176.98728°
Mean anomaly
176.9779°
Eccentric anomaly
176.98259°
Mean motion
3.16395 °/min
Orbital period
113.78 mins
BSTAR
-0.000018322
Loading maneuver chart data...
Computing Atmospheric mass density...
Loading historical data...
Loading historical data...
Loading historical data...
Loading historical data...
Loading historical data...
Loading historical data...
Loading historical data...

Documentation

Showing up to 5 results
|